Tracking 20093 objects as of 14-Dec-2019
HD Live streaming from Space Station
objects crossing your sky now

COSMOS 2251 DEB

Track COSMOS 2251 DEB now!
10-day predictions


NORAD ID: 34456
Int'l Code: 1993-036SZ
Perigee: 695.3 km
Apogee: 787.1 km
Inclination: 74.0 °
Period: 99.5 minutes
Semi major axis: 7112 km
RCS: 0.0069 m2 (small)
Launch date: June 16, 1993
Source: Commonwealth of Independent States (former USSR) (CIS)
Launch site: PLESETSK MISSILE AND SPACE COMPLEX (PKMTR)

Note: This is SATELLITE DEBRIS
aabbcc
Your satellite tracking list
Your tracking list is empty




NASA's NSSDC Master Catalog

Two Line Element Set (TLE):
1 34456U 93036SZ  19347.87976763 +.00000832 +00000-0 +22851-3 0  9994
2 34456 074.0456 316.4322 0064565 193.5112 166.4322 14.47421157566477
Source of the keplerian elements: AFSPC